| time (UTC) | temp F | wind direction | speed knots | gust knots | rain 1hr in | rain 24hr in | rain mn in | humidity % | barometer mb |
| 20260504120220 | 55 | 99 | 0.0 | 1.7 | 0.00 | 0.00 | 0.00 | 59 | 1015.6 |
| 20260504110647 | 46 | 131 | 0.0 | 0.9 | 0.00 | 0.00 | 0.00 | 71 | 1015.7 |
| 20260504110143 | 46 | 154 | 0.0 | 0.0 | 0.00 | 0.00 | 0.00 | 72 | 1015.5 |
| 20260504100609 | 41 | 214 | 1.7 | 1.7 | 0.00 | 0.00 | 0.00 | 78 | 1015.6 |
| 20260504100108 | 41 | 314 | 0.0 | 1.7 | 0.00 | 0.00 | 0.00 | 77 | 1015.5 |
| 20260504082003 | 44 | 313 | 0.0 | 0.9 | 0.00 | 0.00 | 0.00 | 69 | 1015.9 |
| 20260504081500 | 44 | 322 | 0.0 | 0.0 | 0.00 | 0.00 | 0.00 | 68 | 1015.8 |
| 20260504080950 | 45 | 322 | 0.9 | 0.9 | 0.00 | 0.00 | 0.00 | 66 | 1015.6 |
| 20260504080447 | 46 | 342 | 1.7 | 1.7 | 0.00 | 0.00 | 0.00 | 65 | 1015.9 |
| 20260504050253 | 53 | 238 | 2.6 | 5.2 | 0.00 | 0.00 | 0.00 | 50 | 1015.6 |
| 20260504045750 | 52 | 233 | 3.5 | 6.1 | 0.00 | 0.00 | 0.00 | 49 | 1015.7 |
| 20260504045245 | 53 | 273 | 4.3 | 6.1 | 0.00 | 0.00 | 0.00 | 50 | 1015.8 |
| 20260504044743 | 52 | 257 | 3.5 | 6.1 | 0.00 | 0.00 | 0.00 | 50 | 1015.7 |
| 20260504044241 | 52 | 265 | 4.3 | 6.1 | 0.00 | 0.00 | 0.00 | 50 | 1015.6 |
| 20260504043737 | 52 | 231 | 1.7 | 6.1 | 0.00 | 0.00 | 0.00 | 50 | 1015.7 |
| 20260504043234 | 52 | 256 | 2.6 | 5.2 | 0.00 | 0.00 | 0.00 | 50 | 1015.7 |
| 20260504042732 | 52 | 282 | 3.5 | 5.2 | 0.00 | 0.00 | 0.00 | 50 | 1015.5 |
| 20260504042228 | 52 | 243 | 3.5 | 7.0 | 0.00 | 0.00 | 0.00 | 50 | 1015.9 |
| 20260504041724 | 52 | 251 | 3.5 | 7.0 | 0.00 | 0.00 | 0.00 | 50 | 1015.7 |
| 20260504041220 | 52 | 255 | 4.3 | 6.1 | 0.00 | 0.00 | 0.00 | 49 | 1015.6 |
| 20260504040717 | 53 | 244 | 3.5 | 6.1 | 0.00 | 0.00 | 0.00 | 50 | 1015.5 |
| 20260504040214 | 53 | 255 | 4.3 | 6.1 | 0.00 | 0.00 | 0.00 | 49 | 1015.5 |
| 20260504035710 | 53 | 254 | 3.5 | 7.0 | 0.00 | 0.00 | 0.00 | 48 | 1015.4 |
| 20260504035208 | 53 | 266 | 2.6 | 7.0 | 0.00 | 0.00 | 0.00 | 49 | 1015.6 |
| 20260504034705 | 53 | 226 | 5.2 | 6.1 | 0.00 | 0.00 | 0.00 | 48 | 1015.4 |
| 20260504034202 | 53 | 248 | 1.7 | 6.1 | 0.00 | 0.00 | 0.00 | 49 | 1015.4 |
| 20260504033700 | 53 | 229 | 5.2 | 7.0 | 0.00 | 0.00 | 0.00 | 48 | 1015.3 |
| 20260504033157 | 53 | 261 | 3.5 | 7.0 | 0.00 | 0.00 | 0.00 | 49 | 1015.4 |
| 20260504032653 | 53 | 244 | 6.1 | 7.0 | 0.00 | 0.00 | 0.00 | 48 | 1015.3 |
| 20260504032151 | 53 | 208 | 3.5 | 7.0 | 0.00 | 0.00 | 0.00 | 49 | 1015.2 |
| 20260504031648 | 53 | 252 | 4.3 | 6.1 | 0.00 | 0.00 | 0.00 | 49 | 1015.1 |
| 20260504031144 | 53 | 230 | 2.6 | 5.2 | 0.00 | 0.00 | 0.00 | 50 | 1015.2 |
| 20260504030641 | 53 | 242 | 3.5 | 5.2 | 0.00 | 0.00 | 0.00 | 49 | 1015.2 |
| 20260504030138 | 53 | 259 | 2.6 | 5.2 | 0.00 | 0.00 | 0.00 | 49 | 1015.2 |
| 20260504025634 | 53 | 247 | 5.2 | 7.0 | 0.00 | 0.00 | 0.00 | 49 | 1015.2 |
| 20260504025131 | 53 | 221 | 1.7 | 5.2 | 0.00 | 0.00 | 0.00 | 49 | 1015.2 |
| 20260504024628 | 53 | 238 | 2.6 | 6.1 | 0.00 | 0.00 | 0.00 | 48 | 1015.2 |
| 20260504024125 | 53 | 252 | 5.2 | 6.1 | 0.00 | 0.00 | 0.00 | 48 | 1015.2 |
| 20260504023621 | 53 | 245 | 3.5 | 5.2 | 0.00 | 0.00 | 0.00 | 49 | 1015.2 |
| 20260504023118 | 53 | 259 | 3.5 | 7.0 | 0.00 | 0.00 | 0.00 | 49 | 1015.1 |
| 20260504022614 | 53 | 200 | 1.7 | 5.2 | 0.00 | 0.00 | 0.00 | 49 | 1015.1 |
| 20260504022110 | 53 | 253 | 4.3 | 6.1 | 0.00 | 0.00 | 0.00 | 49 | 1015.3 |
| 20260504021608 | 52 | 231 | 2.6 | 5.2 | 0.00 | 0.00 | 0.00 | 49 | 1015.3 |
| 20260504021105 | 52 | 234 | 2.6 | 3.5 | 0.00 | 0.00 | 0.00 | 50 | 1015.4 |
| 20260504020602 | 53 | 245 | 2.6 | 3.5 | 0.00 | 0.00 | 0.00 | 49 | 1015.3 |
| 20260504020058 | 53 | 274 | 3.5 | 5.2 | 0.00 | 0.00 | 0.00 | 49 | 1015.3 |
| 20260504015554 | 53 | 234 | 1.7 | 3.5 | 0.00 | 0.00 | 0.00 | 49 | 1015.2 |
| 20260504015050 | 53 | 235 | 1.7 | 3.5 | 0.00 | 0.00 | 0.00 | 50 | 1015.3 |
| 20260504014547 | 53 | 250 | 3.5 | 5.2 | 0.00 | 0.00 | 0.00 | 49 | 1015.2 |
| 20260504014044 | 53 | 233 | 2.6 | 3.5 | 0.00 | 0.00 | 0.00 | 49 | 1015.1 |
| 20260504013541 | 52 | 235 | 1.7 | 2.6 | 0.00 | 0.00 | 0.00 | 51 | 1015.0 |
| 20260504013038 | 53 | 227 | 2.6 | 3.5 | 0.00 | 0.00 | 0.00 | 50 | 1015.3 |
| 20260504012536 | 53 | 211 | 1.7 | 2.6 | 0.00 | 0.00 | 0.00 | 51 | 1015.1 |
| 20260504012033 | 53 | 227 | 2.6 | 3.5 | 0.00 | 0.00 | 0.00 | 50 | 1015.0 |
| 20260504011530 | 52 | 243 | 1.7 | 3.5 | 0.00 | 0.00 | 0.00 | 51 | 1015.3 |
| 20260504011026 | 52 | 225 | 1.7 | 2.6 | 0.00 | 0.00 | 0.00 | 51 | 1014.9 |
| 20260504010522 | 53 | 243 | 1.7 | 2.6 | 0.00 | 0.00 | 0.00 | 51 | 1015.0 |
| 20260504010018 | 52 | 253 | 2.6 | 3.5 | 0.00 | 0.00 | 0.00 | 50 | 1015.2 |
| 20260504005515 | 52 | 226 | 3.5 | 5.2 | 0.00 | 0.00 | 0.00 | 51 | 1014.9 |
| 20260504005012 | 52 | 248 | 1.7 | 3.5 | 0.00 | 0.00 | 0.00 | 52 | 1015.0 |
| 20260504004510 | 52 | 220 | 1.7 | 2.6 | 0.00 | 0.00 | 0.00 | 52 | 1015.2 |
| 20260504004007 | 52 | 261 | 1.7 | 2.6 | 0.00 | 0.00 | 0.00 | 53 | 1014.9 |
| 20260504003503 | 53 | 262 | 1.7 | 3.5 | 0.00 | 0.00 | 0.00 | 51 | 1014.9 |
| 20260504003000 | 53 | 256 | 3.5 | 3.5 | 0.00 | 0.00 | 0.00 | 51 | 1014.8 |
| 20260504002457 | 53 | 239 | 1.7 | 3.5 | 0.00 | 0.00 | 0.00 | 51 | 1014.6 |
| 20260504001954 | 53 | 258 | 2.6 | 3.5 | 0.00 | 0.00 | 0.00 | 50 | 1014.7 |
| 20260504001451 | 54 | 260 | 2.6 | 3.5 | 0.00 | 0.00 | 0.00 | 50 | 1014.6 |
| 20260504000948 | 54 | 240 | 1.7 | 2.6 | 0.00 | 0.00 | 0.00 | 50 | 1014.4 |
| 20260504000445 | 55 | 261 | 1.7 | 3.5 | 0.00 | 0.00 | 0.00 | 48 | 1014.5 |
| 20260503235942 | 55 | 298 | 3.5 | 5.2 | 0.00 | 0.00 | 0.00 | 47 | 1014.3 |
| 20260503235440 | 55 | 246 | 1.7 | 3.5 | 0.00 | 0.00 | 0.00 | 48 | 1014.4 |
| 20260503234937 | 56 | 304 | 1.7 | 2.6 | 0.00 | 0.00 | 0.00 | 47 | 1014.3 |
| 20260503234435 | 57 | 277 | 1.7 | 2.6 | 0.00 | 0.00 | 0.00 | 46 | 1014.1 |
| 20260503233933 | 57 | 279 | 1.7 | 5.2 | 0.00 | 0.00 | 0.00 | 46 | 1014.3 |
| 20260503233429 | 58 | 293 | 1.7 | 3.5 | 0.00 | 0.00 | 0.00 | 44 | 1014.0 |
| 20260503232925 | 58 | 264 | 1.7 | 3.5 | 0.00 | 0.00 | 0.00 | 43 | 1014.3 |
| 20260503232422 | 59 | 298 | 5.2 | 7.0 | 0.00 | 0.00 | 0.00 | 42 | 1014.0 |
| 20260503231920 | 59 | 299 | 3.5 | 6.1 | 0.00 | 0.00 | 0.00 | 42 | 1014.1 |
| 20260503231417 | 59 | 303 | 3.5 | 3.5 | 0.00 | 0.00 | 0.00 | 42 | 1014.1 |
| 20260503230913 | 59 | 322 | 2.6 | 5.2 | 0.00 | 0.00 | 0.00 | 41 | 1014.3 |
| 20260503230410 | 60 | 327 | 4.3 | 7.0 | 0.00 | 0.00 | 0.00 | 40 | 1013.8 |
| 20260503225908 | 60 | 21 | 3.5 | 9.6 | 0.00 | 0.00 | 0.00 | 40 | 1013.9 |
| 20260503225404 | 60 | 247 | 6.1 | 8.7 | 0.00 | 0.00 | 0.00 | 41 | 1014.1 |
| 20260503224900 | 60 | 336 | 3.5 | 8.7 | 0.00 | 0.00 | 0.00 | 40 | 1014.0 |
| 20260503224357 | 60 | 268 | 4.3 | 7.8 | 0.00 | 0.00 | 0.00 | 40 | 1014.0 |
| 20260503223855 | 60 | 325 | 4.3 | 13.9 | 0.00 | 0.00 | 0.00 | 41 | 1014.0 |
| 20260503223353 | 60 | 264 | 2.6 | 11.3 | 0.00 | 0.00 | 0.00 | 40 | 1013.9 |
| 20260503222848 | 61 | 276 | 8.7 | 11.3 | 0.00 | 0.00 | 0.00 | 39 | 1013.7 |
| 20260503222347 | 60 | 322 | 4.3 | 7.0 | 0.00 | 0.00 | 0.00 | 39 | 1013.8 |
| 20260503221844 | 58 | 294 | 4.3 | 8.7 | 0.00 | 0.00 | 0.00 | 41 | 1013.9 |
| 20260503221343 | 59 | 298 | 7.8 | 13.0 | 0.00 | 0.00 | 0.00 | 41 | 1014.0 |
| 20260503220838 | 58 | 316 | 5.2 | 7.0 | 0.00 | 0.00 | 0.00 | 42 | 1013.9 |
| 20260503220335 | 58 | 322 | 5.2 | 7.0 | 0.00 | 0.00 | 0.00 | 41 | 1013.9 |
| 20260503215832 | 59 | 315 | 4.3 | 9.6 | 0.00 | 0.00 | 0.00 | 41 | 1014.1 |
| 20260503215330 | 59 | 327 | 1.7 | 6.1 | 0.00 | 0.00 | 0.00 | 42 | 1013.9 |
| 20260503214827 | 59 | 339 | 1.7 | 6.1 | 0.00 | 0.00 | 0.00 | 41 | 1014.0 |
| 20260503214324 | 58 | 323 | 1.7 | 5.2 | 0.00 | 0.00 | 0.00 | 41 | 1013.9 |
| 20260503213821 | 58 | 352 | 3.5 | 8.7 | 0.00 | 0.00 | 0.00 | 40 | 1013.9 |
| 20260503213319 | 60 | 290 | 4.3 | 8.7 | 0.00 | 0.00 | 0.00 | 40 | 1013.8 |
| 20260503212810 | 62 | 7 | 2.6 | 9.6 | 0.00 | 0.00 | 0.00 | 38 | 1013.7 |
| 20260503212308 | 62 | 354 | 5.2 | 8.7 | 0.00 | 0.00 | 0.00 | 39 | 1013.8 |
| 20260503211805 | 61 | 290 | 4.3 | 13.9 | 0.00 | 0.00 | 0.00 | 40 | 1013.7 |
| 20260503211301 | 61 | 26 | 5.2 | 12.2 | 0.00 | 0.00 | 0.00 | 39 | 1013.6 |
| 20260503210756 | 61 | 324 | 3.5 | 8.7 | 0.00 | 0.00 | 0.00 | 38 | 1013.9 |
| 20260503210254 | 61 | 355 | 9.6 | 12.2 | 0.00 | 0.00 | 0.00 | 38 | 1013.7 |
| 20260503205749 | 61 | 282 | 3.5 | 3.5 | 0.00 | 0.00 | 0.00 | 40 | 1013.8 |
| 20260503205245 | 60 | 286 | 4.3 | 8.7 | 0.00 | 0.00 | 0.00 | 39 | 1013.9 |
| 20260503204742 | 62 | 284 | 7.0 | 11.3 | 0.00 | 0.00 | 0.00 | 39 | 1013.8 |
| 20260503204240 | 61 | 305 | 4.3 | 12.2 | 0.00 | 0.00 | 0.00 | 39 | 1013.9 |
| 20260503203737 | 61 | 338 | 6.1 | 9.6 | 0.00 | 0.00 | 0.00 | 38 | 1013.5 |
| 20260503203234 | 62 | 307 | 3.5 | 5.2 | 0.00 | 0.00 | 0.00 | 36 | 1013.7 |
| 20260503202731 | 61 | 320 | 3.5 | 7.0 | 0.00 | 0.00 | 0.00 | 38 | 1013.8 |
| 20260503202228 | 59 | 305 | 5.2 | 7.8 | 0.00 | 0.00 | 0.00 | 39 | 1013.7 |
| 20260503201727 | 59 | 7 | 5.2 | 7.0 | 0.00 | 0.00 | 0.00 | 38 | 1013.8 |
| 20260503201224 | 58 | 315 | 4.3 | 6.1 | 0.00 | 0.00 | 0.00 | 38 | 1014.0 |
| 20260503200720 | 59 | 343 | 7.0 | 9.6 | 0.00 | 0.00 | 0.00 | 38 | 1014.4 |
| 20260503200217 | 60 | 303 | 5.2 | 7.8 | 0.00 | 0.00 | 0.00 | 39 | 1014.1 |
| 20260503195714 | 60 | 289 | 7.8 | 11.3 | 0.00 | 0.00 | 0.00 | 39 | 1014.3 |
| 20260503195211 | 59 | 26 | 5.2 | 8.7 | 0.00 | 0.00 | 0.00 | 39 | 1014.3 |
| 20260503194708 | 59 | 5 | 5.2 | 11.3 | 0.00 | 0.00 | 0.00 | 38 | 1014.4 |
| 20260503194204 | 58 | 346 | 6.1 | 9.6 | 0.00 | 0.00 | 0.00 | 37 | 1014.5 |
| 20260503193700 | 60 | 264 | 7.0 | 8.7 | 0.00 | 0.00 | 0.00 | 37 | 1014.7 |
| 20260503193156 | 59 | 339 | 6.1 | 12.2 | 0.00 | 0.00 | 0.00 | 37 | 1014.5 |
| 20260503192652 | 59 | 301 | 5.2 | 7.0 | 0.00 | 0.00 | 0.00 | 38 | 1014.6 |
| 20260503192147 | 60 | 318 | 7.0 | 13.0 | 0.00 | 0.00 | 0.00 | 37 | 1014.6 |
| 20260503191644 | 59 | 336 | 1.7 | 5.2 | 0.00 | 0.00 | 0.00 | 42 | 1014.8 |
| 20260503191141 | 58 | 3 | 3.5 | 8.7 | 0.00 | 0.00 | 0.00 | 39 | 1014.9 |
| 20260503190638 | 59 | 278 | 5.2 | 13.0 | 0.00 | 0.00 | 0.00 | 39 | 1014.7 |
| 20260503190135 | 59 | 348 | 5.2 | 8.7 | 0.00 | 0.00 | 0.00 | 40 | 1014.9 |
| 20260503185632 | 59 | 342 | 5.2 | 9.6 | 0.00 | 0.00 | 0.00 | 40 | 1014.8 |
| 20260503185126 | 58 | 326 | 5.2 | 9.6 | 0.00 | 0.00 | 0.00 | 40 | 1015.3 |
| 20260503184622 | 59 | 324 | 3.5 | 9.6 | 0.00 | 0.00 | 0.00 | 41 | 1015.1 |
| 20260503184119 | 57 | 342 | 3.5 | 9.6 | 0.00 | 0.00 | 0.00 | 40 | 1015.1 |
| 20260503183615 | 58 | 330 | 7.8 | 13.0 | 0.00 | 0.00 | 0.00 | 39 | 1015.4 |
| 20260503183113 | 59 | 299 | 5.2 | 9.6 | 0.00 | 0.00 | 0.00 | 40 | 1015.2 |
| 20260503182611 | 58 | 2 | 6.1 | 13.0 | 0.00 | 0.00 | 0.00 | 40 | 1015.4 |
| 20260503182109 | 58 | 344 | 5.2 | 8.7 | 0.00 | 0.00 | 0.00 | 41 | 1015.2 |
| 20260503181605 | 58 | 307 | 4.3 | 9.6 | 0.00 | 0.00 | 0.00 | 42 | 1015.2 |
| 20260503181102 | 57 | 3 | 4.3 | 8.7 | 0.00 | 0.00 | 0.00 | 41 | 1015.4 |
| 20260503180559 | 57 | 18 | 7.0 | 11.3 | 0.00 | 0.00 | 0.00 | 39 | 1015.2 |
| 20260503180056 | 56 | 15 | 6.1 | 8.7 | 0.00 | 0.00 | 0.00 | 43 | 1015.4 |
| 20260503175554 | 57 | 320 | 1.7 | 6.1 | 0.00 | 0.00 | 0.00 | 42 | 1015.5 |
| 20260503175051 | 57 | 324 | 4.3 | 8.7 | 0.00 | 0.00 | 0.00 | 42 | 1015.5 |
| 20260503174548 | 56 | 304 | 8.7 | 13.0 | 0.00 | 0.00 | 0.00 | 41 | 1015.7 |
| 20260503174044 | 55 | 331 | 2.6 | 9.6 | 0.00 | 0.00 | 0.00 | 44 | 1015.8 |
| 20260503173539 | 54 | 309 | 7.0 | 18.2 | 0.00 | 0.00 | 0.00 | 42 | 1015.8 |
| 20260503173036 | 54 | 317 | 3.5 | 8.7 | 0.00 | 0.00 | 0.00 | 44 | 1015.7 |
| 20260503172534 | 54 | 294 | 4.3 | 5.2 | 0.00 | 0.00 | 0.00 | 44 | 1015.7 |
| 20260503172030 | 56 | 314 | 5.2 | 11.3 | 0.00 | 0.00 | 0.00 | 43 | 1015.9 |
| 20260503171527 | 53 | 332 | 2.6 | 12.2 | 0.00 | 0.00 | 0.00 | 45 | 1016.0 |
| 20260503171024 | 54 | 314 | 2.6 | 12.2 | 0.00 | 0.00 | 0.00 | 44 | 1015.9 |
| 20260503170520 | 55 | 29 | 4.3 | 8.7 | 0.00 | 0.00 | 0.00 | 45 | 1016.0 |
| 20260503150913 | 52 | 300 | 4.3 | 8.7 | 0.00 | 0.00 | 0.00 | 46 | 1016.5 |
| 20260503150409 | 49 | 337 | 1.7 | 9.6 | 0.00 | 0.00 | 0.00 | 48 | 1016.6 |
| 20260503131303 | 47 | 25 | 2.6 | 6.1 | 0.00 | 0.00 | 0.00 | 62 | 1016.9 |
| 20260503130800 | 46 | 333 | 5.2 | 7.8 | 0.00 | 0.00 | 0.00 | 63 | 1016.9 |
| 20260503130257 | 47 | 326 | 5.2 | 7.8 | 0.00 | 0.00 | 0.00 | 63 | 1016.9 |